RVN2807 SBBR-SBGR

Flight info

Callsign RVN2807
Flight time N/A
Altitude 34000
Route ENRUR UZ38 VUNOX
Aircraft A321/M-SDE3FGHIRWY/LB1

Departure

Time 2026-05-06 14:33
Airport Presidente Juscelino Kubitschek International Airport (SBBR)

Arrival

Time N/A
Airport São Paulo/Guarulhos–Governor André Franco Montoro International Airport (SBGR)
Time Latitude Longitude Altitude Speed Heading
2026-05-06 14:10 -15.86830 -47.91884 3486 ft 0 kts 357°
2026-05-06 14:19 -15.86831 -47.91884 3486 ft 0 kts 357°
2026-05-06 14:20 -15.86830 -47.91884 3486 ft 0 kts 357°
2026-05-06 14:20 -15.86841 -47.91883 3487 ft 2 kts 357°
2026-05-06 14:20 -15.86857 -47.91883 3487 ft 2 kts 14°
2026-05-06 14:20 -15.86870 -47.91889 3487 ft 2 kts 39°
2026-05-06 14:21 -15.86880 -47.91901 3488 ft 2 kts 64°
2026-05-06 14:21 -15.86884 -47.91913 3488 ft 0 kts 84°
2026-05-06 14:21 -15.86884 -47.91920 3488 ft 0 kts 87°
2026-05-06 14:24 -15.86883 -47.91910 3488 ft 2 kts 87°
2026-05-06 14:24 -15.86881 -47.91870 3487 ft 7 kts 86°
2026-05-06 14:24 -15.86877 -47.91809 3486 ft 9 kts 86°
2026-05-06 14:24 -15.86872 -47.91741 3485 ft 8 kts 86°
2026-05-06 14:25 -15.86908 -47.91708 3485 ft 7 kts 155°
2026-05-06 14:25 -15.86960 -47.91698 3485 ft 7 kts 175°
2026-05-06 14:25 -15.87031 -47.91693 3485 ft 12 kts 175°
2026-05-06 14:25 -15.87126 -47.91686 3483 ft 14 kts 176°
2026-05-06 14:26 -15.87232 -47.91679 3481 ft 15 kts 176°
2026-05-06 14:26 -15.87346 -47.91671 3479 ft 17 kts 176°
2026-05-06 14:26 -15.87463 -47.91663 3474 ft 16 kts 176°
2026-05-06 14:26 -15.87589 -47.91655 3466 ft 14 kts 176°
2026-05-06 14:27 -15.87686 -47.91657 3459 ft 15 kts 205°
2026-05-06 14:27 -15.87719 -47.91752 3460 ft 15 kts 265°
2026-05-06 14:27 -15.87728 -47.91877 3463 ft 18 kts 267°
2026-05-06 14:27 -15.87736 -47.92010 3465 ft 18 kts 266°
2026-05-06 14:28 -15.87745 -47.92139 3468 ft 17 kts 266°
2026-05-06 14:28 -15.87753 -47.92262 3472 ft 17 kts 266°
2026-05-06 14:28 -15.87763 -47.92395 3477 ft 19 kts 266°
2026-05-06 14:28 -15.87772 -47.92533 3481 ft 18 kts 266°
2026-05-06 14:29 -15.87781 -47.92660 3486 ft 16 kts 266°
2026-05-06 14:29 -15.87788 -47.92771 3490 ft 14 kts 266°
2026-05-06 14:29 -15.87794 -47.92865 3494 ft 14 kts 266°
2026-05-06 14:29 -15.87803 -47.93001 3499 ft 19 kts 266°
2026-05-06 14:30 -15.87812 -47.93142 3504 ft 19 kts 266°
2026-05-06 14:30 -15.87822 -47.93283 3510 ft 19 kts 265°
2026-05-06 14:30 -15.87831 -47.93428 3514 ft 20 kts 267°
2026-05-06 14:30 -15.87840 -47.93572 3518 ft 18 kts 265°
2026-05-06 14:31 -15.87849 -47.93695 3522 ft 16 kts 266°
2026-05-06 14:31 -15.87855 -47.93813 3524 ft 17 kts 267°
2026-05-06 14:31 -15.87865 -47.93938 3525 ft 17 kts 259°
2026-05-06 14:31 -15.87948 -47.93996 3525 ft 15 kts 175°
2026-05-06 14:32 -15.88039 -47.93964 3524 ft 13 kts 118°
2026-05-06 14:32 -15.88045 -47.93877 3524 ft 2 kts 86°
2026-05-06 14:32 -15.88044 -47.93864 3524 ft 14 kts 86°
2026-05-06 14:33 -15.88020 -47.93485 3514 ft 89 kts 85°
2026-05-06 14:33 -15.87963 -47.92600 3476 ft 153 kts 85°
2026-05-06 14:33 -15.87876 -47.91376 3710 ft 181 kts 88°
2026-05-06 14:33 -15.87852 -47.90076 4337 ft 181 kts 99°
2026-05-06 14:34 -15.88510 -47.88996 4933 ft 187 kts 145°
2026-05-06 14:34 -15.89763 -47.88644 5423 ft 192 kts 167°
2026-05-06 14:34 -15.91121 -47.88412 5644 ft 202 kts 164°
2026-05-06 14:34 -15.92543 -47.88104 5867 ft 213 kts 162°
2026-05-06 14:35 -15.94034 -47.87745 6145 ft 228 kts 161°
2026-05-06 14:35 -15.95671 -47.87331 6356 ft 250 kts 161°
2026-05-06 14:35 -15.97404 -47.86886 6716 ft 265 kts 161°
2026-05-06 14:35 -15.99246 -47.86412 7090 ft 280 kts 161°
2026-05-06 14:36 -16.01173 -47.85917 7705 ft 285 kts 162°
2026-05-06 14:36 -16.03108 -47.85422 8368 ft 288 kts 161°
2026-05-06 14:36 -16.05049 -47.84922 8991 ft 291 kts 161°
2026-05-06 14:36 -16.07003 -47.84324 9608 ft 292 kts 156°
2026-05-06 14:37 -16.08882 -47.83552 10209 ft 293 kts 152°
2026-05-06 14:37 -16.10762 -47.82677 10724 ft 299 kts 152°
2026-05-06 14:37 -16.12715 -47.81755 10996 ft 315 kts 152°
2026-05-06 14:37 -16.14770 -47.80788 11258 ft 330 kts 153°
2026-05-06 14:38 -16.16918 -47.79779 11541 ft 344 kts 153°
2026-05-06 14:38 -16.19108 -47.78754 12025 ft 349 kts 154°
2026-05-06 14:38 -16.21335 -47.77710 12608 ft 351 kts 154°
2026-05-06 14:38 -16.23575 -47.76662 13175 ft 353 kts 154°
2026-05-06 14:39 -16.25806 -47.75619 13720 ft 355 kts 155°
2026-05-06 14:39 -16.28091 -47.74551 14269 ft 357 kts 155°
2026-05-06 14:39 -16.30346 -47.73497 14811 ft 358 kts 155°
2026-05-06 14:39 -16.32631 -47.72429 15346 ft 360 kts 155°
2026-05-06 14:40 -16.34935 -47.71350 15799 ft 363 kts 155°
2026-05-06 14:40 -16.37274 -47.70255 16009 ft 374 kts 155°
2026-05-06 14:40 -16.39677 -47.69129 16194 ft 384 kts 155°
2026-05-06 14:40 -16.42134 -47.67977 16368 ft 394 kts 155°
2026-05-06 14:41 -16.44673 -47.66787 16533 ft 404 kts 155°
2026-05-06 14:41 -16.47299 -47.65556 16691 ft 412 kts 155°
2026-05-06 14:41 -16.49927 -47.64323 17127 ft 412 kts 155°
2026-05-06 14:41 -16.52506 -47.63112 17932 ft 402 kts 155°
2026-05-06 14:42 -16.55004 -47.61938 18769 ft 391 kts 155°
2026-05-06 14:42 -16.57431 -47.60796 19608 ft 380 kts 155°
2026-05-06 14:42 -16.59850 -47.59658 20267 ft 376 kts 156°
2026-05-06 14:42 -16.62219 -47.58543 20723 ft 377 kts 156°
2026-05-06 14:43 -16.64608 -47.57420 21140 ft 378 kts 156°
2026-05-06 14:43 -16.67044 -47.56274 21540 ft 381 kts 156°
2026-05-06 14:43 -16.69446 -47.55145 21913 ft 384 kts 156°
2026-05-06 14:43 -16.71922 -47.53981 22325 ft 386 kts 156°
2026-05-06 14:44 -16.74362 -47.52832 22703 ft 388 kts 156°
2026-05-06 14:44 -16.76840 -47.51664 23108 ft 389 kts 157°
2026-05-06 14:44 -16.79302 -47.50502 23544 ft 390 kts 157°
2026-05-06 14:45 -16.84244 -47.48173 24315 ft 393 kts 158°
2026-05-06 14:45 -16.86746 -47.46992 24663 ft 395 kts 158°
2026-05-06 14:45 -16.89276 -47.45800 25112 ft 394 kts 158°
2026-05-06 14:45 -16.91735 -47.44637 25889 ft 384 kts 158°
2026-05-06 14:46 -16.94129 -47.43504 26721 ft 372 kts 158°
2026-05-06 14:46 -16.96442 -47.42410 27528 ft 361 kts 159°
2026-05-06 14:46 -16.98681 -47.41351 28340 ft 349 kts 159°
2026-05-06 14:46 -17.00848 -47.40323 29138 ft 338 kts 160°
2026-05-06 14:47 -17.02968 -47.39320 29737 ft 332 kts 160°
2026-05-06 14:47 -17.05092 -47.38321 30084 ft 333 kts 160°
2026-05-06 14:47 -17.06588 -47.37618 30319 ft 333 kts 161°
2026-05-06 14:47 -17.08696 -47.36625 30630 ft 335 kts 160°
2026-05-06 14:48 -17.10844 -47.35611 30931 ft 337 kts 161°
2026-05-06 14:48 -17.12969 -47.34607 31241 ft 338 kts 161°
2026-05-06 14:48 -17.15138 -47.33583 31550 ft 340 kts 161°
2026-05-06 14:48 -17.17304 -47.32560 31878 ft 341 kts 161°
2026-05-06 14:49 -17.19474 -47.31531 32180 ft 342 kts 161°
2026-05-06 14:49 -17.21648 -47.30502 32453 ft 344 kts 161°
2026-05-06 14:49 -17.23851 -47.29461 32763 ft 345 kts 162°
2026-05-06 14:49 -17.26018 -47.28433 33074 ft 346 kts 161°
2026-05-06 14:50 -17.28229 -47.27386 33369 ft 348 kts 162°
2026-05-06 14:50 -17.30431 -47.26345 33633 ft 350 kts 162°
2026-05-06 14:50 -17.32673 -47.25282 33862 ft 353 kts 161°
2026-05-06 14:50 -17.34944 -47.24206 34110 ft 356 kts 162°
2026-05-06 14:51 -17.37199 -47.23138 34237 ft 362 kts 162°
2026-05-06 14:51 -17.41878 -47.20919 34244 ft 377 kts 162°
2026-05-06 14:52 -17.46765 -47.18602 34240 ft 392 kts 161°
2026-05-06 14:52 -17.51868 -47.16319 34239 ft 402 kts 165°
2026-05-06 14:53 -17.57171 -47.14351 34236 ft 404 kts 166°
2026-05-06 14:53 -17.62491 -47.12403 34235 ft 403 kts 166°
2026-05-06 14:54 -17.67780 -47.10467 34234 ft 403 kts 166°
2026-05-06 14:54 -17.73094 -47.08522 34231 ft 403 kts 166°
2026-05-06 14:55 -17.78392 -47.06581 34230 ft 403 kts 166°
2026-05-06 14:55 -17.83666 -47.04646 34229 ft 402 kts 166°
2026-05-06 14:56 -17.88972 -47.02701 34230 ft 402 kts 166°
2026-05-06 14:56 -17.94239 -47.00766 34230 ft 401 kts 166°
2026-05-06 14:57 -17.99518 -46.98829 34231 ft 401 kts 166°
2026-05-06 14:57 -18.04776 -46.96898 34234 ft 399 kts 166°
2026-05-06 14:58 -18.10042 -46.94963 34236 ft 401 kts 166°
2026-05-06 14:58 -18.15360 -46.93007 34242 ft 407 kts 166°
2026-05-06 14:59 -18.20788 -46.91013 34244 ft 418 kts 166°
2026-05-06 14:59 -18.26351 -46.88965 34246 ft 423 kts 166°
2026-05-06 14:59 -18.29083 -46.87951 34244 ft 408 kts 166°
2026-05-06 15:00 -18.31709 -46.86978 34251 ft 403 kts 166°
2026-05-06 15:00 -18.37008 -46.85025 34256 ft 401 kts 166°
2026-05-06 15:01 -18.42275 -46.83082 34259 ft 401 kts 166°